Temperature
1 2 1 1 1 0 -0 0 0 1 1 1 -0 -1 -0 -0 -0 -1 -1 -2 -2 -2 -2 -2 -2 -2 -2 -2 -2 -2 -2 -2 -2 -2 -2 -2 -2 -2 -1 -1 -2 -1 -1 -1
-1 1 1 0 0 0 -0 -0 -0 -0 -0 -0 -0 -0 -1 -1 -1 -2 -2 -2 -3 -3 -3 -3 -3 -3 -3 -3 -3 -3 -3 -3 -2 -2 -2 -2 -2 -2 -2 -2 -2 -2 -2 -2
0 0 -0 -0 -0 -1 -1 -1 -1 -1 -1 -1 -2 -2 -2 -2 -2 -3 -3 -3 -3 -3 -3 -3 -4 -4 -3 -3 -3 -3 -3 -3 -3 -3 -3 -3 -3 -3 -3 -3 -3 -3 -3 -3
-1 -1 0 1 -0 -1 -1 -2 -2 -2 -2 -2 -2 -2 -2 -2 -3 -3 -3 -4 -4 -4 -4 -4 -4 -4 -4 -4 -4 -4 -4 -4 -4 -4 -4 -4 -4 -4 -4 -4 -4 -4 -4 -4
-1 -1 0 0 -1 -2 -2 -2 -3 -3 -3 -2 -2 -3 -3 -2 -3 -3 -4 -4 -4 -5 -5 -5 -5 -5 -5 -5 -5 -4 -4 -4 -4 -4 -4 -4 -4 -4 -4 -4 -4 -4 -4 -4
-1 -1 -0 0 -2 -2 -2 -3 -3 -3 -4 -3 -4 -4 -4 -3 -4 -4 -4 -5 -5 -5 -5 -5 -5 -5 -5 -5 -5 -5 -5 -5 -5 -5 -5 -5 -5 -5 -5 -5 -5 -5 -5 -5
-2 -2 -1 -2 -3 -3 -2 -2 -3 -3 -3 -4 -5 -4 -4 -4 -5 -5 -5 -5 -5 -6 -6 -6 -6 -6 -6 -6 -6 -6 -6 -6 -6 -6 -6 -6 -6 -6 -6 -6 -6 -6 -6 -6
-3 -2 -2 -4 -4 -4 -3 -3 -3 -3 -4 -4 -5 -5 -5 -5 -5 -6 -6 -6 -6 -6 -6 -6 -6 -7 -6 -6 -6 -6 -6 -6 -6 -6 -7 -7 -7 -7 -7 -7 -7 -7 -7 -7
-3 -2 -2 -3 -3 -2 -3 -3 -4 -4 -4 -5 -5 -6 -6 -6 -6 -7 -7 -7 -7 -7 -7 -7 -7 -7 -7 -7 -7 -7 -7 -7 -7 -7 -7 -7 -7 -8 -8 -8 -8 -8 -8 -7
-4 -4 -3 -3 -3 -3 -4 -4 -4 -5 -5 -5 -6 -6 -7 -7 -7 -7 -7 -7 -7 -7 -7 -7 -7 -7 -8 -8 -8 -8 -8 -8 -8 -8 -8 -8 -8 -8 -8 -8 -8 -8 -8 -8
-5 -5 -4 -3 -4 -4 -4 -5 -5 -5 -6 -6 -6 -7 -7 -8 -8 -8 -8 -8 -8 -8 -8 -8 -8 -8 -8 -8 -8 -8 -8 -8 -9 -9 -8 -9 -9 -9 -9 -9 -9 -9 -9 -9
-4 -4 -5 -4 -4 -4 -5 -5 -6 -6 -6 -6 -7 -7 -8 -8 -8 -8 -8 -8 -8 -8 -8 -8 -8 -8 -8 -9 -9 -9 -9 -9 -9 -9 -9 -9 -9 -9 -9 -10 -10 -10 -10 -10
-4 -4 -4 -4 -5 -5 -5 -6 -6 -6 -7 -7 -7 -8 -8 -8 -8 -8 -8 -8 -8 -8 -9 -9 -9 -9 -9 -9 -9 -9 -9 -9 -9 -9 -10 -10 -10 -10 -10 -10 -10 -10 -10 -10
-5 -5 -6 -6 -6 -6 -6 -7 -7 -7 -7 -8 -8 -8 -8 -9 -9 -8 -8 -9 -9 -9 -9 -9 -9 -9 -9 -9 -9 -10 -10 -10 -10 -10 -10 -10 -10 -10 -10 -10 -10 -10 -10 -10
-6 -6 -6 -6 -7 -7 -7 -7 -8 -8 -8 -8 -8 -8 -9 -9 -9 -9 -9 -9 -9 -9 -9 -9 -9 -9 -10 -10 -10 -10 -10 -10 -10 -10 -10 -10 -10 -11 -11 -11 -11 -11 -11 -11
-6 -7 -7 -7 -7 -8 -8 -8 -8 -8 -8 -8 -9 -9 -9 -9 -9 -9 -9 -9 -9 -9 -10 -10 -10 -10 -10 -10 -10 -10 -10 -10 -11 -11 -11 -11 -11 -11 -11 -11 -11 -11 -11 -11
-8 -8 -8 -8 -8 -8 -8 -9 -9 -9 -9 -9 -9 -9 -9 -9 -9 -10 -10 -10 -10 -10 -10 -10 -10 -10 -10 -10 -11 -11 -11 -11 -11 -11 -11 -11 -11 -11 -12 -12 -12 -12 -12 -12
-7 -8 -8 -8 -8 -9 -9 -9 -9 -9 -9 -9 -9 -9 -10 -10 -10 -10 -10 -10 -10 -10 -11 -11 -11 -11 -11 -11 -11 -11 -11 -11 -11 -11 -12 -12 -12 -12 -12 -12 -12 -12 -12 -12
-8 -8 -8 -9 -9 -9 -9 -9 -10 -10 -10 -10 -10 -10 -10 -10 -10 -10 -11 -11 -11 -11 -11 -11 -11 -11 -11 -11 -11 -11 -12 -12 -12 -12 -12 -12 -12 -12 -13 -12 -12 -12 -12 -12
-8 -8 -9 -9 -9 -9 -10 -10 -10 -10 -10 -10 -10 -10 -10 -10 -11 -11 -11 -11 -11 -11 -11 -11 -11 -11 -11 -12 -12 -12 -12 -12 -12 -12 -12 -12 -13 -13 -13 -13 -13 -13 -13 -13
-9 -9 -9 -10 -10 -10 -10 -10 -10 -10 -10 -10 -11 -11 -11 -11 -11 -11 -11 -11 -11 -11 -12 -12 -12 -12 -12 -12 -12 -12 -12 -12 -12 -13 -13 -13 -13 -13 -13 -13 -13 -13 -13 -13
-9 -10 -10 -10 -10 -10 -10 -11 -11 -11 -11 -11 -11 -11 -11 -11 -11 -11 -11 -12 -12 -12 -12 -12 -12 -12 -12 -12 -12 -12 -12 -12 -13 -13 -13 -13 -13 -13 -13 -13 -14 -14 -14 -14
-10 -10 -10 -11 -11 -11 -11 -11 -11 -11 -11 -11 -11 -11 -11 -12 -12 -12 -12 -12 -12 -12 -12 -12 -12 -13 -13 -13 -13 -13 -13 -13 -13 -13 -13 -13 -13 -14 -14 -14 -14 -14 -14 -14
-10 -10 -11 -11 -11 -11 -11 -11 -11 -11 -12 -12 -12 -12 -12 -12 -12 -12 -12 -12 -13 -13 -13 -13 -13 -13 -13 -13 -13 -13 -13 -13 -13 -13 -13 -13 -13 -14 -14 -14 -14 -14 -14 -14
-11 -11 -11 -12 -12 -12 -12 -12 -12 -12 -12 -12 -12 -12 -12 -12 -12 -12 -13 -13 -13 -13 -13 -13 -13 -13 -13 -13 -13 -13 -13 -13 -13 -13 -13 -13 -14 -14 -14 -14 -14 -14 -14 -14
-11 -11 -12 -12 -12 -12 -12 -12 -12 -12 -12 -12 -12 -12 -12 -12 -13 -13 -13 -13 -13 -13 -13 -13 -13 -13 -14 -14 -14 -14 -14 -13 -13 -13 -14 -14 -14 -14 -14 -14 -14 -14 -14 -14
-12 -12 -12 -12 -12 -12 -12 -13 -13 -13 -13 -13 -13 -13 -13 -13 -13 -13 -13 -13 -13 -13 -13 -14 -14 -14 -14 -14 -14 -14 -14 -14 -14 -14 -14 -14 -14 -14 -14 -14 -14 -14 -14 -14
Wind_Speed
9 8 6 9 9 8 10 10 10 11 11 12 9 7 6 5 5 4 4 4 4 4 4 4 5 5 5 5 5 4 3 3 4 4 3 3 3 4 4 3 4 4 4 4
7 8 8 11 12 11 12 11 13 14 14 11 7 5 6 6 5 5 5 5 5 5 5 5 5 5 5 6 5 4 3 4 4 4 4 3 3 3 3 3 3 3 3 4
6 3 5 9 10 9 6 7 7 10 10 6 6 6 6 6 5 5 5 5 5 5 5 5 5 5 5 5 5 4 4 4 4 4 4 4 3 3 3 3 3 3 4 4
5 4 8 7 1 4 6 8 7 8 7 5 5 6 6 5 4 5 6 6 5 5 6 6 5 5 5 4 5 4 5 5 4 4 4 3 2 3 3 2 3 3 4 4
3 6 9 5 2 2 4 6 6 8 8 6 5 6 6 2 3 4 5 5 4 4 5 6 6 5 5 4 4 5 5 5 5 4 4 3 3 3 2 2 2 3 3 4
4 6 8 6 0 1 1 6 3 2 5 5 4 5 7 5 5 5 5 4 4 4 4 5 6 5 4 4 4 5 6 6 5 4 3 4 3 3 3 2 3 3 3 3
7 8 8 3 1 1 1 6 3 3 4 4 4 6 5 6 5 4 4 5 4 4 4 5 5 5 4 5 5 6 6 5 5 4 3 3 3 2 2 2 2 2 3 3
5 6 8 2 3 4 6 3 3 4 4 5 6 6 5 5 5 5 5 5 4 4 5 5 4 4 5 6 6 5 5 4 4 4 3 3 3 3 2 2 2 2 2 2
7 7 3 4 4 3 2 3 4 4 5 4 6 7 7 6 6 5 5 5 4 4 5 5 4 4 5 6 5 5 4 4 4 4 3 3 3 2 2 2 2 2 2 2
6 8 6 5 3 3 3 5 5 5 5 5 6 7 7 6 6 5 5 5 4 5 5 6 6 5 5 5 5 4 4 4 4 3 3 3 2 2 2 2 2 2 3 3
8 7 6 5 4 4 4 5 5 5 5 5 5 6 6 6 6 6 6 5 4 5 6 6 6 6 5 5 4 4 4 4 3 3 3 2 2 2 3 2 3 3 2 3
9 5 4 5 3 3 4 5 5 5 6 5 4 6 6 6 6 5 6 5 5 5 6 6 6 6 5 4 4 4 4 4 3 2 2 2 2 3 4 4 5 6 5 4
5 3 3 5 5 3 4 5 4 5 5 6 5 5 5 6 6 5 5 5 5 6 6 6 5 5 5 4 3 3 3 4 3 3 3 2 2 3 3 4 5 5 5 5
2 1 3 4 4 4 4 4 3 4 4 4 5 5 5 5 5 5 6 6 5 5 5 5 5 5 5 4 3 3 4 4 4 3 3 2 2 2 2 3 3 3 4 5
4 4 4 4 4 4 4 3 3 4 5 5 5 4 4 5 6 6 6 5 5 4 4 4 5 5 4 3 3 3 3 3 3 2 2 2 2 2 2 2 3 3 3 4
2 2 3 4 5 5 4 4 4 6 5 6 6 5 5 5 6 6 5 4 4 5 5 4 5 5 4 3 4 3 3 4 3 2 2 2 2 2 2 2 3 3 3 3
2 3 4 5 5 5 5 5 5 6 6 6 6 5 5 5 5 5 5 4 5 5 5 4 5 5 4 3 3 3 3 3 4 3 2 2 2 2 2 2 2 2 3 3
4 5 5 5 5 5 5 4 4 5 5 6 5 4 4 5 5 6 5 5 5 5 5 4 4 4 3 3 3 2 2 2 2 2 2 2 2 2 2 2 2 3 3 3
3 3 4 4 4 4 4 5 5 5 5 4 4 5 5 5 5 5 4 4 5 5 5 4 6 4 4 4 4 2 2 2 2 2 2 3 3 2 2 2 2 2 2 2
2 2 3 3 3 3 4 4 4 4 4 4 4 4 5 5 4 4 4 5 5 4 4 5 4 3 3 4 4 2 2 2 2 2 2 2 2 2 2 2 2 2 2 2
3 3 3 3 3 3 3 3 3 4 4 4 4 5 5 5 4 4 4 5 6 4 4 5 3 3 3 4 4 2 1 1 2 2 2 2 2 2 2 2 2 2 2 2
3 3 3 3 3 4 4 3 3 4 4 4 4 4 4 4 4 4 4 4 5 6 4 3 3 4 5 4 2 1 1 1 1 1 2 2 2 2 2 2 2 2 2 2
3 3 3 3 3 4 4 3 3 3 4 4 4 4 4 4 3 4 5 4 4 6 4 3 5 6 6 3 2 2 2 2 2 2 2 2 2 2 2 2 2 2 2 2
2 2 3 2 2 2 4 4 3 3 4 4 4 4 3 4 4 3 3 6 7 7 4 5 7 7 5 2 2 2 2 2 2 2 2 2 2 2 2 2 2 2 2 2
2 2 2 2 2 3 3 3 3 3 3 3 4 3 3 3 3 4 4 4 6 6 4 6 7 7 4 2 2 2 2 2 3 2 2 2 2 2 2 2 2 2 2 2
2 2 2 3 3 2 1 2 2 3 3 4 4 3 3 3 3 3 3 4 5 6 4 4 4 4 3 3 3 3 2 3 3 2 2 2 2 2 2 2 3 3 3 3
2 2 2 2 2 1 1 2 2 3 3 3 4 4 3 3 3 3 3 3 3 3 3 3 3 3 3 3 3 3 3 2 2 2 2 2 2 2 3 3 3 3 4 4
Wind_Direction
267 276 268 260 258 235 225 233 244 266 272 278 291 298 300 305 312 317 321 330 330 324 324 329 332 330 325 319 316 312 305 296 288 291 286 277 262 251 246 244 239 230 225 231
274 255 258 267 260 246 241 244 251 267 275 278 294 306 304 307 311 314 318 324 327 327 329 327 325 322 322 319 320 323 318 308 309 311 304 292 273 260 251 246 240 229 232 234
268 275 296 267 245 222 228 229 230 247 260 288 304 305 304 304 303 304 309 318 323 322 320 319 318 320 317 316 325 328 319 314 312 307 303 301 294 264 252 249 243 238 242 240
275 300 257 249 220 196 224 244 233 250 273 286 286 301 297 293 305 309 313 317 322 327 327 327 327 327 326 331 332 329 320 314 316 315 308 304 294 274 263 253 247 248 253 250
248 266 270 272 251 194 220 268 239 248 273 294 310 315 296 312 332 308 309 314 320 321 318 322 326 328 329 332 332 330 323 318 322 320 310 299 282 277 275 270 264 260 261 257
237 255 262 263 245 9 51 280 273 252 278 296 320 302 287 322 333 329 330 329 328 328 325 323 325 330 330 328 331 324 319 317 319 318 309 301 292 283 280 273 262 264 270 264
241 252 264 264 109 91 229 270 310 299 285 281 262 261 283 313 322 321 319 318 320 323 321 317 322 329 326 326 319 313 315 318 322 323 314 307 308 312 311 296 290 273 274 277
221 238 256 171 137 201 241 295 298 295 293 289 286 293 293 300 305 310 315 317 320 322 319 320 324 326 320 315 313 318 322 324 324 323 320 319 319 318 317 311 303 293 288 288
211 233 259 185 215 247 299 295 290 293 293 285 287 289 291 294 298 302 306 310 316 315 312 317 322 319 310 311 318 324 324 321 321 324 325 324 316 311 311 302 293 289 284 283
264 266 265 247 256 285 287 279 287 288 288 284 281 285 292 294 297 301 303 305 311 313 311 313 316 315 308 312 320 321 317 316 318 321 324 327 320 308 297 286 279 281 279 282
262 276 296 269 253 272 287 286 290 293 286 276 278 287 293 299 300 299 301 303 304 301 300 302 309 312 314 317 321 316 311 310 313 314 315 315 309 294 286 274 269 274 270 269
247 246 238 269 281 261 268 278 281 290 301 298 279 281 291 294 296 296 295 297 302 300 300 303 308 309 313 316 315 312 312 312 312 314 313 312 312 310 304 293 301 297 293 288
237 274 265 283 302 291 274 284 290 290 287 295 294 286 288 292 297 297 296 296 294 294 297 302 308 309 312 314 312 304 301 306 309 309 304 302 303 307 314 317 315 313 308 301
245 282 286 278 285 301 300 300 307 306 299 294 295 293 291 294 299 300 298 296 295 295 297 301 304 304 309 314 310 305 301 303 306 298 294 290 289 291 294 304 316 320 318 312
260 238 246 269 292 301 307 313 311 306 308 308 305 295 296 298 297 297 301 306 307 303 300 301 302 305 315 315 311 304 301 302 300 297 299 298 299 300 299 297 298 306 317 319
271 275 265 270 276 287 299 295 289 291 297 300 302 298 298 296 294 297 302 307 306 301 300 299 299 305 311 310 311 304 296 302 307 301 299 299 298 297 300 300 301 307 314 317
245 267 267 273 275 279 278 274 273 280 289 293 294 299 305 307 305 304 306 306 299 295 295 298 302 310 308 299 294 297 297 298 304 304 294 286 287 285 282 288 294 296 298 309
232 237 240 250 259 271 281 284 285 287 289 289 295 301 301 298 295 297 303 310 310 307 300 298 301 309 304 303 298 296 294 289 287 284 286 283 284 281 280 281 285 291 300 309
250 246 253 257 257 259 267 275 283 289 292 293 291 291 292 292 293 299 307 310 305 305 308 307 310 315 306 302 307 294 295 293 293 291 287 291 302 297 290 287 290 293 297 304
259 260 265 275 278 270 270 278 284 291 293 292 293 296 300 300 303 307 307 299 290 291 300 308 308 305 300 297 307 294 285 281 281 286 291 290 286 286 285 286 287 289 293 297
271 274 279 284 291 290 278 278 280 286 292 291 285 285 290 296 299 299 302 302 302 304 309 312 318 306 299 302 304 299 284 280 283 286 290 282 281 284 284 285 287 291 294 300
273 268 272 278 286 296 296 289 280 284 292 295 294 291 293 298 303 303 291 285 300 311 322 312 311 308 314 318 318 312 302 297 294 293 291 285 278 280 281 281 285 290 292 295
271 265 267 270 273 285 294 291 284 285 284 285 288 288 285 287 289 292 298 300 305 306 318 309 308 311 317 332 329 315 306 296 288 284 282 282 279 273 276 276 276 280 284 288
272 269 271 278 285 288 294 302 302 295 287 287 287 285 286 295 297 285 287 302 311 310 312 307 310 313 324 342 320 308 299 294 288 281 281 285 287 284 276 272 273 275 276 280
273 270 268 269 274 278 283 297 305 304 307 308 304 302 295 281 280 295 302 301 304 312 316 310 314 319 329 319 303 297 293 287 286 284 277 285 285 286 287 278 270 272 273 273
270 271 268 266 272 276 285 293 299 304 312 314 317 319 316 313 303 303 305 304 305 314 322 316 317 319 323 315 307 302 297 299 308 307 288 283 281 283 287 291 282 274 274 273
283 282 281 292 295 289 282 279 284 293 300 303 306 309 313 316 315 314 314 315 316 319 321 321 320 318 318 318 315 310 307 304 300 298 290 285 285 284 286 287 287 283 280 277
Height
1507 1505 1505 1505 1504 1505 1506 1502 1500 1488 1485 1479 1478 1477 1476 1475 1473 1471 1469 1467 1465 1464 1462 1460 1458 1456 1454 1452 1451 1450 1448 1446 1445 1445 1445 1444 1444 1444 1444 1445 1446 1447 1448 1449
1509 1503 1502 1501 1496 1496 1496 1495 1492 1488 1484 1477 1477 1476 1474 1472 1471 1469 1467 1465 1463 1462 1459 1457 1455 1453 1451 1449 1448 1446 1444 1442 1441 1440 1439 1439 1438 1438 1438 1439 1440 1441 1442 1443
1505 1501 1501 1497 1488 1489 1489 1487 1487 1486 1480 1476 1475 1474 1472 1471 1469 1467 1465 1463 1461 1459 1457 1455 1453 1450 1448 1446 1444 1442 1440 1438 1437 1436 1435 1433 1433 1433 1433 1433 1434 1435 1436 1437
1506 1504 1500 1483 1481 1481 1483 1482 1481 1479 1476 1474 1473 1471 1469 1468 1466 1464 1462 1460 1458 1456 1454 1452 1449 1447 1444 1442 1440 1438 1436 1434 1433 1432 1430 1430 1429 1429 1429 1429 1429 1430 1431 1431
1506 1501 1489 1482 1481 1481 1482 1480 1476 1475 1473 1472 1471 1469 1466 1465 1464 1463 1460 1457 1455 1453 1451 1448 1446 1444 1441 1439 1437 1435 1433 1431 1430 1428 1427 1426 1425 1425 1425 1425 1425 1425 1426 1427
1503 1501 1490 1479 1480 1478 1481 1480 1472 1471 1471 1470 1470 1470 1464 1462 1461 1458 1456 1454 1452 1449 1447 1445 1443 1441 1438 1435 1433 1432 1430 1429 1427 1425 1424 1422 1421 1421 1421 1421 1421 1421 1422 1422
1502 1497 1486 1480 1479 1480 1483 1476 1471 1469 1469 1468 1468 1466 1462 1459 1457 1455 1453 1450 1448 1446 1443 1441 1439 1437 1435 1432 1430 1429 1427 1425 1424 1422 1420 1419 1418 1418 1418 1417 1417 1417 1418 1418
1498 1494 1485 1478 1478 1479 1475 1470 1469 1467 1466 1465 1463 1461 1458 1456 1454 1451 1448 1446 1445 1442 1440 1438 1436 1434 1431 1429 1428 1426 1424 1422 1420 1419 1418 1416 1415 1415 1414 1414 1413 1413 1414 1414
1486 1481 1473 1472 1471 1470 1469 1468 1466 1465 1463 1462 1459 1457 1455 1452 1450 1448 1445 1443 1441 1439 1436 1434 1432 1430 1428 1426 1424 1422 1420 1419 1417 1416 1415 1414 1412 1412 1411 1411 1410 1410 1410 1410
1479 1472 1469 1469 1468 1467 1466 1465 1463 1462 1460 1458 1455 1453 1451 1448 1446 1444 1442 1440 1437 1435 1432 1430 1429 1427 1425 1423 1421 1419 1417 1415 1414 1412 1411 1410 1410 1409 1408 1407 1407 1407 1406 1406
1475 1469 1467 1464 1464 1463 1462 1461 1459 1457 1456 1454 1452 1449 1447 1444 1442 1440 1438 1436 1434 1432 1429 1427 1425 1423 1421 1419 1417 1416 1414 1412 1411 1409 1408 1407 1407 1406 1405 1405 1405 1404 1404 1404
1467 1464 1464 1461 1460 1459 1458 1456 1455 1453 1451 1449 1448 1445 1443 1441 1439 1437 1434 1432 1430 1428 1426 1424 1422 1420 1418 1417 1415 1413 1411 1409 1408 1407 1406 1405 1404 1403 1403 1403 1402 1402 1402 1402
1460 1460 1459 1458 1456 1455 1454 1453 1451 1450 1448 1445 1444 1442 1440 1437 1435 1433 1431 1429 1427 1425 1423 1421 1419 1417 1416 1414 1412 1410 1409 1407 1406 1404 1403 1402 1401 1400 1400 1400 1399 1399 1399 1398
1457 1457 1455 1454 1453 1452 1450 1449 1447 1446 1444 1442 1440 1438 1436 1434 1432 1430 1428 1426 1424 1422 1420 1418 1416 1414 1413 1411 1410 1408 1406 1405 1404 1402 1401 1400 1399 1398 1397 1396 1395 1395 1396 1395
1453 1453 1452 1450 1449 1448 1447 1445 1443 1441 1439 1437 1436 1434 1432 1430 1428 1426 1425 1422 1420 1418 1417 1415 1413 1412 1410 1409 1407 1405 1404 1402 1401 1400 1399 1398 1397 1396 1395 1394 1393 1392 1392 1392
1449 1449 1448 1446 1445 1444 1443 1441 1439 1437 1436 1434 1432 1430 1428 1427 1425 1423 1421 1419 1417 1415 1414 1412 1410 1409 1407 1406 1404 1402 1401 1400 1399 1398 1397 1396 1395 1393 1392 1392 1391 1390 1389 1389
1445 1444 1443 1442 1441 1440 1439 1438 1436 1434 1432 1430 1428 1427 1425 1423 1421 1419 1418 1416 1415 1413 1412 1410 1408 1406 1404 1403 1401 1400 1398 1397 1396 1395 1394 1393 1392 1391 1390 1389 1388 1388 1387 1387
1442 1441 1441 1439 1438 1436 1435 1434 1432 1431 1429 1428 1426 1424 1422 1420 1418 1417 1415 1413 1412 1410 1409 1407 1405 1403 1402 1400 1399 1397 1396 1394 1393 1392 1391 1390 1390 1389 1388 1387 1386 1385 1385 1384
1438 1438 1437 1436 1434 1433 1431 1430 1429 1428 1426 1425 1423 1421 1419 1418 1416 1414 1413 1411 1409 1407 1405 1404 1402 1401 1399 1397 1396 1395 1393 1392 1391 1390 1389 1388 1387 1386 1386 1385 1384 1383 1383 1382
1435 1434 1433 1432 1431 1430 1428 1427 1426 1424 1423 1422 1420 1418 1416 1415 1413 1412 1410 1408 1406 1405 1403 1402 1400 1398 1396 1395 1393 1392 1391 1390 1388 1387 1386 1385 1384 1384 1383 1382 1382 1381 1380 1380
1431 1430 1429 1428 1427 1426 1425 1424 1422 1421 1420 1418 1417 1415 1414 1412 1411 1409 1407 1405 1404 1402 1401 1399 1397 1395 1394 1392 1391 1390 1389 1387 1386 1385 1384 1383 1382 1381 1380 1380 1379 1379 1378 1377
1428 1427 1426 1425 1424 1423 1422 1421 1420 1418 1417 1415 1414 1412 1411 1409 1408 1406 1405 1404 1402 1400 1398 1396 1395 1393 1392 1390 1389 1387 1386 1385 1384 1383 1382 1381 1380 1379 1378 1378 1377 1376 1376 1375
1425 1424 1423 1422 1421 1420 1419 1418 1417 1416 1414 1413 1411 1410 1408 1407 1405 1404 1402 1401 1399 1398 1396 1394 1393 1391 1390 1388 1387 1385 1384 1383 1382 1381 1380 1379 1378 1377 1376 1375 1375 1374 1374 1373
1423 1421 1420 1419 1418 1417 1416 1415 1414 1413 1412 1411 1409 1408 1406 1404 1403 1402 1400 1399 1397 1395 1393 1391 1390 1388 1387 1385 1384 1383 1382 1380 1379 1378 1377 1376 1375 1375 1374 1373 1372 1372 1371 1371
1420 1419 1418 1417 1416 1415 1414 1413 1411 1410 1409 1408 1407 1405 1404 1402 1401 1399 1397 1396 1394 1392 1390 1389 1387 1386 1384 1383 1382 1380 1379 1378 1377 1376 1375 1374 1373 1372 1372 1371 1370 1370 1369 1369
1417 1416 1415 1415 1414 1413 1412 1411 1409 1408 1407 1405 1404 1403 1401 1400 1398 1396 1395 1393 1392 1390 1388 1386 1385 1383 1382 1381 1379 1378 1377 1376 1375 1374 1373 1372 1371 1370 1369 1369 1368 1368 1367 1367
1414 1414 1413 1412 1411 1411 1410 1408 1407 1406 1405 1403 1402 1400 1399 1397 1396 1394 1392 1391 1389 1387 1386 1384 1383 1381 1380 1379 1377 1376 1375 1374 1373 1372 1371 1370 1369 1368 1368 1367 1366 1366 1365 1365